GW1795 Weather Reports


Display with metric or nautical units.
time (UTC)temp
F
wind
direction
speed
MPH
gust
MPH
rain 1hr
in
rain 24hr
in
rain mn
in
humidity
%
barometer
mb
20240521155759 82 173 3.0 7.0 0.00 0.00 0.00 54 1015.0
20240521155257 82 264 2.0 8.0 0.00 0.00 0.00 55 1015.0
20240521154756 81 235 1.0 5.0 0.00 0.00 0.00 49 1015.1
20240521154255 81 236 3.0 7.0 0.00 0.00 0.00 50 1015.1
20240521153754 80 203 3.0 5.0 0.00 0.00 0.00 52 1014.9
20240521153253 80 268 2.0 8.0 0.00 0.00 0.00 53 1014.9
20240521152751 80 166 3.0 5.0 0.00 0.00 0.00 55 1015.0
20240521152250 80 206 3.0 6.0 0.00 0.00 0.00 56 1014.9
20240521151748 80 175 8.0 8.0 0.00 0.00 0.00 55 1014.9
20240521151247 79 140 1.0 6.0 0.00 0.00 0.00 55 1014.9
20240521150746 79 262 4.0 8.0 0.00 0.00 0.00 55 1015.2
20240521150245 79 243 4.0 7.0 0.00 0.00 0.00 55 1015.1
20240521145744 78 170 4.0 8.0 0.00 0.00 0.00 56 1015.3
20240521145242 78 201 5.0 7.0 0.00 0.00 0.00 56 1015.5
20240521144741 78 240 3.0 5.0 0.00 0.00 0.00 57 1015.3
20240521144238 78 211 5.0 6.0 0.00 0.00 0.00 56 1015.4
20240521143736 78 248 1.0 6.0 0.00 0.00 0.00 57 1015.3
20240521143235 77 261 2.0 3.0 0.00 0.00 0.00 58 1015.3
20240521142731 77 263 3.0 8.0 0.00 0.00 0.00 59 1015.3
20240521142230 77 179 3.0 5.0 0.00 0.00 0.00 58 1015.4
20240521141729 76 187 5.0 6.0 0.00 0.00 0.00 60 1015.4
20240521141225 76 205 1.0 2.0 0.00 0.00 0.00 59 1015.5
20240521140723 76 185 3.0 5.0 0.00 0.00 0.00 60 1015.7
20240521140209 74 223 1.0 1.0 0.00 0.00 0.00 60 1015.5
20240521135707 75 204 2.0 3.0 0.00 0.00 0.00 60 1015.7
20240521135205 75 167 3.0 3.0 0.00 0.00 0.00 61 1015.8
20240521134704 75 250 3.0 5.0 0.00 0.00 0.00 63 1015.8
20240521134204 75 217 3.0 6.0 0.00 0.00 0.00 60 1015.8
20240521133703 74 211 3.0 5.0 0.00 0.00 0.00 63 1015.8
20240521133202 74 200 4.0 6.0 0.00 0.00 0.00 63 1015.8
20240521132700 73 229 3.0 5.0 0.00 0.00 0.00 63 1016.0
20240521132158 75 225 3.0 5.0 0.00 0.00 0.00 66 1015.9
20240521131658 73 171 5.0 6.0 0.00 0.00 0.00 63 1015.9
20240521131156 72 228 2.0 3.0 0.00 0.00 0.00 65 1015.9
20240521130655 70 196 3.0 3.0 0.00 0.00 0.00 66 1016.1
20240521130154 72 194 1.0 5.0 0.00 0.00 0.00 68 1015.9
20240521125652 71 224 3.0 5.0 0.00 0.00 0.00 68 1016.1
20240521125151 72 224 3.0 5.0 0.00 0.00 0.00 68 1016.0
20240521124650 73 215 3.0 6.0 0.00 0.00 0.00 67 1015.8
20240521124148 71 237 1.0 3.0 0.00 0.00 0.00 67 1015.8
20240521123646 72 257 3.0 5.0 0.00 0.00 0.00 66 1015.8
20240521123142 71 209 5.0 7.0 0.00 0.00 0.00 68 1015.8
20240521122638 70 213 3.0 3.0 0.00 0.00 0.00 70 1015.7
20240521122137 70 194 1.0 3.0 0.00 0.00 0.00 72 1015.8
20240521121635 69 172 5.0 6.0 0.00 0.00 0.00 71 1015.5
20240521121134 69 226 1.0 3.0 0.00 0.00 0.00 75 1015.7
20240521120633 68 174 3.0 3.0 0.00 0.00 0.00 76 1015.7
20240521120130 68 186 2.0 3.0 0.00 0.00 0.00 78 1015.8
20240521115627 67 201 2.0 2.0 0.00 0.00 0.00 80 1015.5
20240521115125 67 190 2.0 3.0 0.00 0.00 0.00 81 1015.7
20240521114624 66 176 3.0 3.0 0.00 0.00 0.00 82 1015.4
20240521114122 66 208 2.0 3.0 0.00 0.00 0.00 83 1015.4
20240521113622 66 236 1.0 1.0 0.00 0.00 0.00 84 1015.2
20240521113121 66 256 2.0 2.0 0.00 0.00 0.00 84 1015.2
20240521112621 66 230 1.0 1.0 0.00 0.00 0.00 85 1015.2
20240521112119 66 242 0.0 1.0 0.00 0.00 0.00 85 1015.2
20240521111619 66 233 1.0 1.0 0.00 0.00 0.00 85 1015.3
20240521111116 66 234 0.0 1.0 0.00 0.00 0.00 85 1015.2
20240521110615 66 240 1.0 2.0 0.00 0.00 0.00 85 1015.1
20240521110115 66 231 2.0 2.0 0.00 0.00 0.00 85 1015.1
20240521105610 66 222 1.0 2.0 0.00 0.00 0.00 85 1015.1
20240521105110 66 240 0.0 2.0 0.00 0.00 0.00 86 1015.0
20240521104608 66 241 0.0 0.0 0.00 0.00 0.00 86 1014.9
20240521104108 65 231 0.0 2.0 0.00 0.00 0.00 86 1014.8
20240521103607 65 234 1.0 1.0 0.00 0.00 0.00 86 1014.8
20240521103106 65 230 1.0 1.0 0.00 0.00 0.00 86 1014.9
20240521102604 65 237 0.0 0.0 0.00 0.00 0.00 86 1014.7
20240521102104 66 215 1.0 1.0 0.00 0.00 0.00 86 1014.7
20240521101603 66 181 1.0 2.0 0.00 0.00 0.00 86 1014.7
20240521101101 66 211 1.0 2.0 0.00 0.00 0.00 85 1014.6
20240521100559 66 202 1.0 3.0 0.00 0.00 0.00 85 1014.8
20240521100058 66 177 2.0 3.0 0.00 0.00 0.00 85 1014.5
20240521095557 66 192 2.0 2.0 0.00 0.00 0.00 86 1014.6
20240521095056 66 233 0.0 1.0 0.00 0.00 0.00 86 1014.6
20240521094555 66 233 0.0 0.0 0.00 0.00 0.00 86 1014.5
20240521094054 66 234 0.0 2.0 0.00 0.00 0.00 85 1014.4
20240521093554 66 217 1.0 2.0 0.00 0.00 0.00 85 1014.3
20240521093053 66 230 1.0 2.0 0.00 0.00 0.00 84 1014.3
20240521092553 66 178 1.0 1.0 0.00 0.00 0.00 84 1014.5
20240521092051 66 225 1.0 1.0 0.00 0.00 0.00 84 1014.5
20240521091550 66 224 1.0 2.0 0.00 0.00 0.00 84 1014.4
20240521091049 66 160 1.0 2.0 0.00 0.00 0.00 84 1014.6
20240521090547 66 208 1.0 1.0 0.00 0.00 0.00 85 1014.5
20240521090046 66 221 1.0 2.0 0.00 0.00 0.00 85 1014.4
20240521085544 66 230 0.0 0.0 0.00 0.00 0.00 86 1014.4
20240521085042 66 230 0.0 0.0 0.00 0.00 0.00 85 1014.3
20240521084541 66 227 0.0 1.0 0.00 0.00 0.00 85 1014.6
20240521084039 66 233 0.0 0.0 0.00 0.00 0.00 85 1014.5
20240521083539 66 193 0.0 1.0 0.00 0.00 0.00 84 1014.5
20240521083038 66 226 1.0 1.0 0.00 0.00 0.00 84 1014.5
20240521082535 67 226 1.0 1.0 0.00 0.00 0.00 84 1014.4
20240521082033 66 230 1.0 1.0 0.00 0.00 0.00 84 1014.4
20240521081532 65 230 0.0 2.0 0.00 0.00 0.00 86 1014.4
20240521081031 64 236 0.0 0.0 0.00 0.00 0.00 89 1014.5
20240521080530 63 242 0.0 0.0 0.00 0.00 0.00 92 1014.3
20240521080029 63 249 0.0 0.0 0.00 0.00 0.00 92 1014.3
20240521075527 63 249 0.0 0.0 0.00 0.00 0.00 92 1014.4
20240521075025 63 249 0.0 0.0 0.00 0.00 0.00 91 1014.4
20240521074524 63 249 0.0 0.0 0.00 0.00 0.00 91 1014.4
20240521074023 63 249 0.0 0.0 0.00 0.00 0.00 91 1014.3
20240521073522 63 249 0.0 0.0 0.00 0.00 0.00 91 1014.4
20240521073022 63 249 0.0 0.0 0.00 0.00 0.00 91 1014.3
20240521072521 63 249 0.0 0.0 0.00 0.00 0.00 91 1014.3
20240521072021 64 249 0.0 0.0 0.00 0.00 0.00 90 1014.5
20240521071519 64 249 0.0 0.0 0.00 0.00 0.00 90 1014.4
20240521071019 64 249 0.0 0.0 0.00 0.00 0.00 90 1014.4
20240521070518 64 249 0.0 0.0 0.00 0.00 0.00 90 1014.4
20240521070015 64 249 0.0 0.0 0.00 0.00 0.00 89 1014.4
20240521065514 64 249 0.0 0.0 0.00 0.00 0.00 89 1014.6
20240521065013 64 249 0.0 0.0 0.00 0.00 0.00 89 1014.6
20240521064512 64 249 0.0 0.0 0.00 0.00 0.00 89 1014.7
20240521064012 65 249 0.0 0.0 0.00 0.00 0.00 89 1014.6
20240521063511 64 249 0.0 0.0 0.00 0.00 0.00 90 1014.6
20240521063010 64 249 0.0 0.0 0.00 0.00 0.00 89 1014.6
20240521062508 64 249 0.0 0.0 0.00 0.00 0.00 89 1014.6
20240521062008 65 249 0.0 0.0 0.00 0.00 0.00 89 1014.8
20240521061507 65 249 0.0 0.0 0.00 0.00 0.00 90 1014.7
20240521061005 65 249 0.0 0.0 0.00 0.00 0.00 89 1014.9
20240521060504 65 249 0.0 0.0 0.00 0.00 0.00 89 1015.0
20240521060002 65 249 0.0 0.0 0.00 0.00 0.00 88 1014.8
20240521055501 65 249 0.0 0.0 0.00 0.00 0.00 88 1015.0
20240521055000 65 249 0.0 0.0 0.00 0.00 0.00 88 1014.9
20240521054459 66 249 0.0 0.0 0.00 0.00 0.00 88 1014.8
20240521053958 65 249 0.0 0.0 0.00 0.00 0.00 87 1015.0
20240521053458 65 249 0.0 0.0 0.00 0.00 0.00 87 1015.0
20240521052956 66 249 0.0 0.0 0.00 0.00 0.00 87 1015.0
20240521052455 66 249 0.0 0.0 0.00 0.00 0.00 86 1015.1
20240521051955 66 249 0.0 0.0 0.00 0.00 0.00 86 1015.0
20240521051453 67 249 0.0 0.0 0.00 0.00 0.00 87 1015.2
20240521050953 66 249 0.0 0.0 0.00 0.00 0.00 87 1015.2
20240521050451 66 249 0.0 0.0 0.00 0.00 0.00 88 1015.3
20240521045951 66 249 0.0 0.0 0.00 0.00 0.00 87 1015.3
20240521045451 66 249 0.0 0.0 0.00 0.00 0.00 87 1015.3
20240521044949 66 249 0.0 0.0 0.00 0.00 0.00 86 1015.4
20240521044448 67 249 0.0 0.0 0.00 0.00 0.00 86 1015.3
20240521043946 66 249 0.0 0.0 0.00 0.00 0.00 84 1015.1
20240521043445 66 249 0.0 0.0 0.00 0.00 0.00 85 1015.2
20240521042944 66 249 0.0 0.0 0.00 0.00 0.00 84 1015.2
20240521042443 67 249 0.0 0.0 0.00 0.00 0.00 84 1015.2
20240521041942 67 249 0.0 0.0 0.00 0.00 0.00 84 1015.2
20240521041440 67 249 0.0 0.0 0.00 0.00 0.00 84 1015.2
20240521040939 68 249 0.0 0.0 0.00 0.00 0.00 84 1015.1
20240521040437 68 249 0.0 0.0 0.00 0.00 0.00 82 1015.2
20240521035937 68 249 0.0 0.0 0.00 0.00 0.00 79 1015.2
20240521035435 68 249 0.0 0.0 0.00 0.00 0.00 78 1015.2
20240521034933 69 249 0.0 0.0 0.00 0.00 0.00 79 1015.2
20240521034432 69 249 0.0 0.0 0.00 0.00 0.00 78 1015.1
20240521033932 70 249 0.0 0.0 0.00 0.00 0.00 77 1015.2
20240521033431 70 248 0.0 0.0 0.00 0.00 0.00 77 1015.2
20240521032930 70 249 0.0 0.0 0.00 0.00 0.00 76 1015.3
20240521032428 70 248 0.0 0.0 0.00 0.00 0.00 76 1015.4
20240521031927 71 249 0.0 0.0 0.00 0.00 0.00 72 1015.3
20240521031426 71 249 0.0 0.0 0.00 0.00 0.00 71 1015.3
20240521030925 72 249 0.0 0.0 0.00 0.00 0.00 72 1015.3
20240521030423 72 249 0.0 0.0 0.00 0.00 0.00 71 1015.3
20240521025922 73 249 0.0 0.0 0.00 0.00 0.00 70 1015.4
20240521025421 73 249 0.0 0.0 0.00 0.00 0.00 69 1015.3
20240521024918 74 249 0.0 0.0 0.00 0.00 0.00 68 1015.3
20240521024418 76 248 0.0 0.0 0.00 0.00 0.00 66 1015.3
20240521023914 76 250 1.0 1.0 0.00 0.00 0.00 59 1015.2
20240521023413 77 246 1.0 1.0 0.00 0.00 0.00 58 1015.2
20240521022912 77 230 1.0 3.0 0.00 0.00 0.00 57 1015.2
20240521022411 77 230 1.0 2.0 0.00 0.00 0.00 57 1015.0
20240521021910 77 224 1.0 1.0 0.00 0.00 0.00 57 1015.0
20240521021408 77 232 0.0 2.0 0.00 0.00 0.00 56 1014.8
20240521020906 76 239 0.0 1.0 0.00 0.00 0.00 57 1014.9
20240521020406 76 210 1.0 2.0 0.00 0.00 0.00 58 1014.6
20240521015903 76 242 0.0 1.0 0.00 0.00 0.00 59 1014.8
20240521015401 76 212 0.0 0.0 0.00 0.00 0.00 61 1014.6
20240521014900 76 212 0.0 0.0 0.00 0.00 0.00 59 1014.7
20240521014357 77 211 0.0 1.0 0.00 0.00 0.00 62 1014.6
20240521013856 77 213 1.0 2.0 0.00 0.00 0.00 59 1014.4
20240521013354 78 233 0.0 1.0 0.00 0.00 0.00 55 1014.6
20240521012850 78 230 0.0 1.0 0.00 0.00 0.00 54 1014.6
20240521012351 78 218 1.0 1.0 0.00 0.00 0.00 54 1014.5
20240521011849 79 216 1.0 2.0 0.00 0.00 0.00 54 1014.5
20240521011347 79 250 0.0 2.0 0.00 0.00 0.00 52 1014.4
20240521010846 79 217 1.0 2.0 0.00 0.00 0.00 51 1014.5
20240521010344 79 243 1.0 2.0 0.00 0.00 0.00 51 1014.6
20240521005844 80 221 0.0 2.0 0.00 0.00 0.00 50 1014.4
20240521005342 80 218 2.0 2.0 0.00 0.00 0.00 50 1014.5
20240521004841 80 222 1.0 2.0 0.00 0.00 0.00 49 1014.3
20240521004340 80 226 1.0 2.0 0.00 0.00 0.00 49 1014.4
20240521003840 81 223 2.0 3.0 0.00 0.00 0.00 48 1014.5
20240521003339 81 220 1.0 2.0 0.00 0.00 0.00 48 1014.4
20240521002838 81 242 2.0 2.0 0.00 0.00 0.00 48 1014.6
20240521002337 81 239 2.0 3.0 0.00 0.00 0.00 47 1014.5
20240521001835 82 212 1.0 3.0 0.00 0.00 0.00 47 1014.5
20240521001335 82 193 2.0 5.0 0.00 0.00 0.00 46 1014.5
20240521000835 82 227 2.0 5.0 0.00 0.00 0.00 46 1014.4
20240521000333 82 227 1.0 3.0 0.00 0.00 0.00 46 1014.3
20240520235832 82 211 3.0 5.0 0.00 0.00 0.00 46 1014.3
20240520235331 83 231 1.0 1.0 0.00 0.00 0.00 46 1014.4
20240520234831 83 206 2.0 5.0 0.00 0.00 0.00 45 1014.1
20240520234329 83 213 3.0 3.0 0.00 0.00 0.00 45 1014.3
20240520233828 84 223 3.0 6.0 0.00 0.00 0.00 45 1014.2
20240520233328 84 205 4.0 6.0 0.00 0.00 0.00 45 1014.2
20240520232827 84 218 2.0 2.0 0.00 0.00 0.00 46 1014.2
20240520232326 84 217 2.0 7.0 0.00 0.00 0.00 45 1014.2
20240520231825 84 260 3.0 5.0 0.00 0.00 0.00 46 1013.9
20240520231324 84 246 3.0 5.0 0.00 0.00 0.00 46 1014.1
20240520230824 84 220 3.0 6.0 0.00 0.00 0.00 45 1014.2
20240520230322 84 208 3.0 3.0 0.00 0.00 0.00 45 1014.3
20240520225822 84 238 1.0 3.0 0.00 0.00 0.00 47 1014.2
20240520225320 84 235 2.0 5.0 0.00 0.00 0.00 46 1014.1
20240520224818 84 246 1.0 2.0 0.00 0.00 0.00 47 1014.1
20240520224317 84 228 5.0 8.0 0.00 0.00 0.00 45 1014.2
20240520223817 84 228 2.0 6.0 0.00 0.00 0.00 47 1014.1
20240520223317 84 258 1.0 2.0 0.00 0.00 0.00 45 1014.1
20240520222816 84 229 5.0 8.0 0.00 0.00 0.00 44 1014.1
20240520222317 84 252 5.0 7.0 0.00 0.00 0.00 45 1014.3
20240520221816 84 225 2.0 5.0 0.00 0.00 0.00 44 1014.1
20240520221315 84 201 2.0 5.0 0.00 0.00 0.00 46 1014.2
20240520220813 84 219 1.0 3.0 0.00 0.00 0.00 45 1014.1
20240520220313 85 203 3.0 7.0 0.00 0.00 0.00 44 1014.3
20240520215811 84 230 1.0 3.0 0.00 0.00 0.00 45 1014.3
20240520215309 84 193 4.0 6.0 0.00 0.00 0.00 45 1014.3
20240520214809 84 175 3.0 3.0 0.00 0.00 0.00 43 1014.2
20240520214307 84 206 3.0 5.0 0.00 0.00 0.00 45 1014.3
20240520213807 84 207 5.0 8.0 0.00 0.00 0.00 43 1014.5
20240520213306 83 265 3.0 5.0 0.00 0.00 0.00 44 1014.3
20240520212806 84 142 3.0 6.0 0.00 0.00 0.00 46 1014.3
20240520212305 84 151 5.0 6.0 0.00 0.00 0.00 46 1014.4
20240520211804 83 253 1.0 2.0 0.00 0.00 0.00 45 1014.5
20240520211304 84 282 3.0 5.0 0.00 0.00 0.00 44 1014.4
20240520210804 84 182 4.0 6.0 0.00 0.00 0.00 46 1014.5
20240520210302 84 246 1.0 3.0 0.00 0.00 0.00 45 1014.5
20240520205800 83 257 1.0 3.0 0.00 0.00 0.00 42 1014.6
20240520205300 83 203 2.0 7.0 0.00 0.00 0.00 42 1014.6
20240520204759 83 213 1.0 3.0 0.00 0.00 0.00 45 1014.7
20240520204259 85 201 6.0 8.0 0.00 0.00 0.00 43 1014.8
20240520203759 82 144 2.0 5.0 0.00 0.00 0.00 48 1014.7
20240520203257 84 150 3.0 6.0 0.00 0.00 0.00 45 1015.1
20240520202756 84 232 4.0 6.0 0.00 0.00 0.00 46 1014.8
20240520202255 84 165 6.0 8.0 0.00 0.00 0.00 45 1014.7
20240520201753 84 278 7.0 9.0 0.00 0.00 0.00 45 1014.8
20240520201252 83 24 2.0 3.0 0.00 0.00 0.00 43 1014.9
20240520200751 84 268 2.0 5.0 0.00 0.00 0.00 47 1014.9
20240520200248 85 240 3.0 6.0 0.00 0.00 0.00 42 1015.0
20240520195747 83 233 2.0 2.0 0.00 0.00 0.00 43 1014.8
20240520195247 84 272 3.0 7.0 0.00 0.00 0.00 43 1014.8
20240520194746 84 268 3.0 6.0 0.00 0.00 0.00 46 1014.9
20240520194246 84 213 6.0 7.0 0.00 0.00 0.00 46 1014.9
20240520193744 84 257 5.0 8.0 0.00 0.00 0.00 46 1014.8
20240520193243 83 191 3.0 7.0 0.00 0.00 0.00 46 1015.1
20240520192743 84 227 6.0 8.0 0.00 0.00 0.00 44 1015.2
20240520192241 83 258 4.0 5.0 0.00 0.00 0.00 46 1015.0
20240520191740 83 203 6.0 7.0 0.00 0.00 0.00 45 1015.4
20240520191240 83 263 3.0 5.0 0.00 0.00 0.00 48 1015.3
20240520190739 84 236 5.0 7.0 0.00 0.00 0.00 46 1015.3
20240520190238 84 137 3.0 9.0 0.00 0.00 0.00 46 1015.4
20240520185733 83 148 4.0 6.0 0.00 0.00 0.00 48 1015.4
20240520185233 82 257 1.0 3.0 0.00 0.00 0.00 47 1015.8
20240520184732 83 174 6.0 6.0 0.00 0.00 0.00 44 1015.9
20240520184231 83 181 6.0 7.0 0.00 0.00 0.00 46 1015.9
20240520183729 83 171 7.0 10.0 0.00 0.00 0.00 50 1015.9
20240520183228 83 171 4.0 6.0 0.00 0.00 0.00 46 1015.8
20240520182726 84 177 7.0 9.0 0.00 0.00 0.00 45 1016.2
20240520182225 84 199 3.0 8.0 0.00 0.00 0.00 50 1015.9
20240520181725 82 218 2.0 3.0 0.00 0.00 0.00 46 1016.1
20240520181224 83 263 4.0 6.0 0.00 0.00 0.00 47 1015.9
20240520180722 84 183 3.0 8.0 0.00 0.00 0.00 47 1016.0
20240520180220 82 122 3.0 3.0 0.00 0.00 0.00 47 1016.4
20240520175719 81 121 3.0 5.0 0.00 0.00 0.00 47 1016.4
20240520175218 83 184 4.0 7.0 0.00 0.00 0.00 48 1016.4
20240520174717 83 228 6.0 9.0 0.00 0.00 0.00 44 1016.4
20240520174216 82 232 6.0 8.0 0.00 0.00 0.00 46 1016.5
20240520173716 81 230 2.0 3.0 0.00 0.00 0.00 47 1016.6
20240520173214 84 178 5.0 9.0 0.00 0.00 0.00 47 1016.6
20240520172710 82 232 1.0 2.0 0.00 0.00 0.00 47 1016.6
20240520172156 80 250 2.0 2.0 0.00 0.00 0.00 49 1016.6
20240520171654 82 228 1.0 5.0 0.00 0.00 0.00 48 1016.8
20240520171153 84 227 4.0 6.0 0.00 0.00 0.00 48 1016.9
20240520170652 82 206 2.0 3.0 0.00 0.00 0.00 48 1017.1
20240520170151 82 182 3.0 5.0 0.00 0.00 0.00 45 1016.9
20240520165650 82 217 2.0 3.0 0.00 0.00 0.00 49 1016.9
20240520165148 82 246 1.0 2.0 0.00 0.00 0.00 47 1017.0
20240520164646 81 272 2.0 6.0 0.00 0.00 0.00 49 1017.2
20240520164144 80 185 3.0 5.0 0.00 0.00 0.00 51 1017.2
20240520163643 82 227 4.0 9.0 0.00 0.00 0.00 51 1017.1
20240520163141 82 211 1.0 6.0 0.00 0.00 0.00 49 1017.1
20240520162639 80 193 3.0 3.0 0.00 0.00 0.00 51 1017.2
20240520162137 81 229 5.0 6.0 0.00 0.00 0.00 49 1017.2
20240520161605 81 226 2.0 3.0 0.00 0.00 0.00 49 1017.0
20240520161101 81 283 4.0 6.0 0.00 0.00 0.00 48 1017.1
20240520160559 82 156 5.0 6.0 0.00 0.00 0.00 52 1017.1
20240520160057 80 232 5.0 6.0 0.00 0.00 0.00 49 1017.1